Погода в Чушевицах

Россия / Вологодская область     60°30′04″N   41°45′33″E
темп.,
°C
ветер,
м/с
пор.,
м/с
влажн.,
%
обл.,
%
осадки,
мм/ч
давл.,
гПа
погр.,
м
13 мая, чт
чт1300:00+12ююв226511 0.0 102414
03:00+12ююв22830 0.0 102418
06:00+15юв26756 0.0 1022171
09:00+22ююв35525 0.0 1021611
12:00+25ююв463673 0.0 10202150
15:00+23ю374761 0.0 1019722
18:00+19юв236611 0.0 101882
21:00+15вюв297938 0.0 1016174
14 мая, пт
пт1400:00+16ююв31280100 0.1 1015433
03:00+13ю399474 1.2 1015507
06:00+13ююз310910 0.0 1016421
09:00+17юз4863100 0.0 10171024
12:00+20юз59455 0.0 10171962
15:00+21юз5738100 0.0 10162177
18:00+19юз3649100 0.0 10161205
21:00+13юз117410 0.0 101611
15 мая, сб
сб1500:00+11вюв118157 0.0 101610
03:00+10юв2288100 0.0 101630
06:00+12вюв2498100 2.1 1014149
09:00+17юв498130 3.6 1012656
12:00+21ююз5863100 0.6 10101457
15:00+21юз487292 2.4 1010787
18:00+18ююз3885100 2.8 1008295
21:00+14ююв279492 3.9 1008162
16 мая, вс
вс1600:00+14ю31197100 0.2 1007376
03:00+12ю279946 0.7 1006185
06:00+14ююз3794100 1.1 1006441
09:00+14юз2695100 2.8 1006520
12:00+16юз348962 0.8 1008602
15:00+15з2593100 3.9 1008165
18:00+14ссв1296100 5.8 1009146
21:00+13с269688 7.0 1010181
17 мая, пн
пн1700:00+11с239845 0.0 101157
03:00+9с229923 0.0 101339
06:00+11ссв239431 0.0 1014197
09:00+15с127512 0.0 1015602
12:00+20ссв12517 0.0 10151464
15:00+20с1250100 0.0 10161625
18:00+16всв377354 0.0 1017327
21:00+12в25896 0.0 101895